Погода в Сорочинске

Погода в Сорочинске : погода сейчас, прогноз погоды и архив. Всё, что Вы хотите узнать о погоде в Сорочинске!

Хотите узнать прогноз погоды в Сорочинске? Тогда Вам сюда: Погода в Сорочинске

Поиск расширенной информации на нашем сайте:

Другие новости

Новости СМИ2

Главная страница сайта

Новости сайта

03.07.2017

Напоминаем, что на нашем специализированном сайте Метеоцентр.Азия вы можете получить высокодетализированные автоматические прогнозы погоды по пунктам России, СНГ и мира в авиационном формате (включающие направление и скорость ветра, видимость, явления погоды, количество и форму облачности, нижнюю и верхнюю границу облачности).


Погода в Сорочинске - сегодня

Время (UTC), дата Ветер
(°,м/с) 
Видим.   Явления Облачность Т
(°С)
Тd
(°С)
f(%) Тe
(°С)
Pmin
(гПа)
dP
(гПа)
Po
(мм)
O2
(г/м3)
Тmin Tmax R s Состояние
почвы
06 12.10.18 350 (С) 20000 м    10/6 1000 м средняя 
[Sc|Ac und]
+5.7 -1.6 59 +4  1021.6  1.3  755  298           
09 12.10.18 350 (С) 5{11}  20000 м    8/8 1000 м кучево-дожд. 
[Cb cap]
+6.3 -5.5 43 +4  1022.3  0.6  755  298           
15 12.10.18 290 (З) 3{10}  20000 м    3/3 1000 м 
[Sc]
+3.9 -5.7 50 +3  1022.8  0.1  755  301    +7.6       
18 12.10.18 280 (З) 20000 м    6/6 1000 м 
[Sc]
+4.6 -4.6 51 +3  1021.6  -1.1  755  300           
21 12.10.18 300 (СЗ) 20000 м    6/6 1000 м 
[Sc]
+5 -2 61 +4  1021  -0.6  754  299           
00 13.10.18 тихо ()   20000 м    10/0 
+2.7 -2.8 67 +3  1021.4  0.2  754  301           
03 13.10.18 тихо ()   20000 м    3/3 1000 м 
[Sc]
-1.4 -4.6 79 -1  1022  0.4  755  306  -1.4        замёрзшая 
06 13.10.18 330 (СЗ) 20000 м    ясно 
+5.8 -2 57 +5  1021.8  0.2  755  298  -1.9         
09 13.10.18 350 (С) 20000 м    4/4 1500 м 
[Cu hum]
+8.2 -4.9 39 +7  1021.6  0.1  755  296           
12 13.10.18 320 (СЗ) 20000 м    6/6 1500 м 
[Cu hum]
+8.7 -6.6 33 +8  1021.3  -0.3  755  295           
15 13.10.18 250 (З) 20000 м    ясно 
+3.6 -6 49 +2  1021.3  -0.2  754  301    +9.6       
18 13.10.18 310 (СЗ) 20000 м    6/6 1000 м 
[Sc]
+2.7 -5.6 54 +3  1021  -0.3  754  301           
21 13.10.18 310 (СЗ) 20000 м    8/8 1000 м 
[Sc]
+2 -3.9 65 +3  1020.6  -0.4  754  302           
00 14.10.18 310 (СЗ) 20000 м    3/0 средняя 
[Ac trans]
+0.4 -4.3 71 +1  1021.2  0.5  754  304           
03 14.10.18 300 (СЗ) 20000 м    10/0 средняя 
[Ac und]
-2.5 -5 83 -2  1021.8  0.4  754  307  -2.8        замёрзшая 
06 14.10.18 350 (С) 20000 м    8/0 средняя 
[Ac trans]
+2.6 -2.8 68 +2  1022.2  0.7  755  302           
09 14.10.18 340 (С) 20000 м    8/8 1000 м 
[Sc]
+5.2 -5.3 47 +4  1022.2  -0.1  755  299           
12 14.10.18 330 (СЗ) 20000 м    4/0 верхняя 
[Ci fib]
+4.8 -6 45 +4  1021.6  -0.6  755  299           
18 14.10.18 290 (З) 20000 м    ясно 
-1.9 -6.5 71 -1  1023.7  0.7  756  307           
21 14.10.18 тихо ()   20000 м    ясно 
-2.2 -6.4 73 -2  1023.5  -0.2  756  308           
00 15.10.18 тихо ()   20000 м    6/0 верхняя 
[Ci fib]
-2.6 -5.9 78 -3  1023.5  756  308           
03 15.10.18 тихо ()   20000 м    4/0 верхняя 
[Ci fib]
-2.9 -6.4 77 -3  1024  0.5  756  309  -2.9        замёрзшая 
06 15.10.18 350 (С) 20000 м    10/0 верхняя 
[Ci]
+2.6 -4.1 61 +2  1024.2  0.5  756  302  -3.2         
09 15.10.18 360 (С) 20000 м    10/0 средняя 
[Ac trans]
+5.3 -4.5 49 +5  1023.9  -0.1  756  299           
18 15.10.18 160 (Ю) 20000 м    10/6 1000 м средняя 
[Sc|Ac und]
+4.4 -3.8 55 +4  1025.1  0.5  757  301           
Время (UTC), дата Ветер
(°,м/с) 
Видим.   Явления Облачность Т
(°С)
Тd
(°С)
f(%) Тe
(°С)
Pmin
(гПа)
dP
(гПа)
Po
(мм)
O2
(г/м3)
Тmin Tmax R s Состояние
почвы

Для получения пояснительной информации подведите курсор к названию столбца.

ПОГОДА в Сорочинске - архив

Всё, что Вы хотите узнать о погоде в Сорочинске - удобно и подробно!

Выберите нужную дату (начиная с 1 января 2015* года) и нажмите кнопку "Найти".
Будут отображены архивные сводки погоды по пункту Сорочинск, начиная с указанной даты.


Отображать данные в формате CSV (для использования в таблицах Excel)


Внимание! Наш архив погоды предназначен исключительно для личного некоммерческого использования в познавательных целях. Если Вам необходимы официальные справки о состоянии погоды (для производственных, юридических, коммерческих и т.п. целей), обращайтесь в органы Росгидромета.

*Примечание: данная дата относится к архиву по метеостанциям СССР (Россия, СНГ, Балтия).
Архив по метеостанциям Зарубежной Европы и Азии (кроме Китая) хранится 10 дней, по другим регионам земного шара (Китай, Африка, Америка, Австралия, Океания) - 1 день.

Сорочинск - район местоположения метеостанции


Название, широта, долгота, высота метеостанции:
Сорочинск 52.4°ш. 53.1°д. 123 м над ур. моря [Российская Федерация]

Дополнительная информация

В oтличие oт бoльшинства пoгoдных сайтoв мы публикуем пoдрoбную метеoинфoрмацию в детальнoм прoфессиoнальнoм фoрмате.

Характеристики температуры и влажнoсти вoздуха измеряются на высoте 2 м в тени вдали oт зданий и деревьев.
Скoрoсть ветра измеряется на высoте 10 м (на урoвне рoста челoвека скoрoсть ветра ниже в 1.5-2 раза). Если метеoстанция нахoдится в гoрoде или в лесу, тo скoрoсть ветра занижена на 2-4 м/с пo сравнению с oткрытым местoм. Скoрoсть ветра над акватoриями крупных рек и oзёр, а также на вершинах хoлмoв на 2-5 м/с выше, чем в oбычных услoвиях.
Атмoсфернoе давление в разных тoчках местнoсти мoжет значительнo oтличаться oт давления на метеoстанции, в зависимoсти oт услoвий рельефа (при пoдъёме на 10 м давление пoнижается примернo на 1 мм рт.ст.).